Regional Weather Roundup
Issued by NWS

Home | Current Version | Previous Version | Graphics & Text | Print | Product List | Glossary On
Versions: 1 2 3 4 5 6 7 8 9 10 11 12 13 14 15 16 17 18 19 20 21 22 23 24 25 26 27 28 29 30 31 32 33 34 35 36 37 38 39 40 41 42 43 44 45 46 47 48 49 50
000
ASUS43 KOAX 300602
RWRNE

WEATHER ROUNDUP FOR NEBRASKA
NATIONAL WEATHER SERVICE OMAHA NE
100 AM CDT TUE AUG 30 2016

NOTES: SATELLITE DATA IS BEING USED TO AUGMENT CLOUD COVER ABOVE
       12000 FEET.
       "FAIR" INDICATES FEW OR NO CLOUDS BELOW 12,000 FEET WITH NO
       SIGNIFICANT WEATHER AND/OR OBSTRUCTIONS TO VISIBILITY.

  * THESE STATIONS DO NOT REPORT WEATHER SUCH AS RAIN...SNOW OR FOG.

NEZ001>004-019>022-054>056-300700-
NEBRASKA PANHANDLE

CITY           SKY/WX    TMP DP  RH WIND       PRES   REMARKS
SCOTTSBLUFF    MOCLDY    62  58  86 E5        30.27S
6HR MIN TEMP:  62; 6HR MAX TEMP:  81;

ALLIANCE       MOCLDY    62  59  90 NE3       30.27S
6HR MIN TEMP:  62; 6HR MAX TEMP:  73;

CHADRON        CLEAR     62  56  80 CALM      30.25S
6HR MIN TEMP:  61; 6HR MAX TEMP:  85;

KIMBALL        CLOUDY    60  55  85 W6        30.33S
SIDNEY         PTCLDY    61  59  93 SE6       30.29F
6HR MIN TEMP:  61; 6HR MAX TEMP:  71;

$$

NEZ057>060-069>072-079>082-300700-
SOUTHWEST NEBRASKA

CITY           SKY/WX    TMP DP  RH WIND       PRES   REMARKS
NORTH PLATTE   LGT RAIN  69  66  90 E3        30.24S
6HR MIN TEMP:  69; 6HR MAX TEMP:  77; 6HR PCP:  0.01;

IMPERIAL       LGT RAIN  67  62  84 SE6       30.25S
6HR MIN TEMP:  67; 6HR MAX TEMP:  76; 6HR PCP: TRACE;

LEXINGTON      DRIZZLE   69  66  90 SE5       30.24S
MCCOOK         LGT RAIN  69  66  90 S6        30.23F
6HR MIN TEMP:  69; 6HR MAX TEMP:  77; 6HR PCP: TRACE;

$$

NEZ005>010-023>029-035>040-094-300700-
NORTH CENTRAL NEBRASKA

CITY           SKY/WX    TMP DP  RH WIND       PRES   REMARKS
VALENTINE      CLOUDY    64  59  83 W3        30.21S
6HR MIN TEMP:  64; 6HR MAX TEMP:  83;

AINSWORTH      CLOUDY    66  64  94 S3        30.22S
BROKEN BOW     MOCLDY    67  66  97 CALM      30.23S
6HR MIN TEMP:  67; 6HR MAX TEMP:  77;

O`NEILL        MOCLDY    71  67  87 SE12G18   30.23R
ORD            CLOUDY    69  64  84 SE5       30.21R
6HR MIN TEMP:  69; 6HR MAX TEMP:  80;

THEDFORD       CLOUDY    69  64  84 SW5       30.25F
$$

NEZ041-046>049-061>064-073>077-083>087-300700-
SOUTH CENTRAL NEBRASKA

CITY           SKY/WX    TMP DP  RH WIND       PRES   REMARKS
GRAND ISLAND   CLOUDY    69  67  93 E5        30.24R
6HR MIN TEMP:  68; 6HR MAX TEMP:  77;

AURORA         CLOUDY    68  68 100 SE6       30.23S
HASTINGS       CLOUDY    69  67  93 E5        30.24R
6HR MIN TEMP:  69; 6HR MAX TEMP:  72; 6HR PCP:  0.03;

HEBRON         CLOUDY    69  67  92 NE5       30.20F
HOLDREGE       DRIZZLE   68  66  93 CALM      30.23S
KEARNEY *      CLOUDY    68  66  94 S3        30.22S
YORK           CLOUDY    68  66  94 SE10      30.22F
$$

NEZ011>018-030>034-042>045-300700-
NORTHEAST NEBRASKA

CITY           SKY/WX    TMP DP  RH WIND       PRES   REMARKS
NORFOLK        LGT RAIN  68  65  90 SW7       30.21F
6HR MIN TEMP:  68; 6HR MAX TEMP:  75; 6HR PCP: TRACE;

ALBION         RAIN      68  65  91 SE8       30.24S
BLAIR          LGT RAIN  69  68  96 SE6       30.19F
FREMONT        DRIZZLE   69  68  94 CALM      30.20S
TEKAMAH        FAIR      68  67  96 S3        30.18F
6HR MIN TEMP:  68; 6HR MAX TEMP:  76; 6HR PCP:  0.42;

WAYNE          FAIR      69  67  92 SW5       30.19S
$$

NEZ050>053-065>068-078-088>093-300700-
SOUTHEAST NEBRASKA

CITY           SKY/WX    TMP DP  RH WIND       PRES   REMARKS
LINCOLN        LGT RAIN  71  68  90 SE3       30.22F
6HR MIN TEMP:  70; 6HR MAX TEMP:  74; 6HR PCP: TRACE;

OMAHA EPPLEY   LGT RAIN  71  68  90 S3        30.18F
6HR MIN TEMP:  70; 6HR MAX TEMP:  75; 6HR PCP:  0.80;

BEATRICE       LGT RAIN  69  68  94 E6        30.19F
FALLS CITY     CLOUDY    70  67  90 N6        30.18F
6HR MIN TEMP:  70; 6HR MAX TEMP:  85; 6HR PCP:  0.09;

NEBRASKA CITY  RAIN      69  69 100 CALM      30.22F
PLATTSMOUTH    CLOUDY    69  69  99 S7        30.22R
$$

NEZ044-045-051>053-067-300700-
OMAHA AREA

CITY           SKY/WX    TMP DP  RH WIND       PRES   REMARKS
OMAHA EPPLEY   LGT RAIN  71  68  90 S3        30.18F
6HR MIN TEMP:  70; 6HR MAX TEMP:  75; 6HR PCP:  0.80;

BLAIR          LGT RAIN  69  68  96 SE6       30.19F
FREMONT        DRIZZLE   69  68  94 CALM      30.20S
MILLARD        CLOUDY    71  69  95 S6        30.21R
OFFUTT AFB     DRIZZLE   70  70 100 S8        30.20S
PLATTSMOUTH    CLOUDY    69  69  99 S7        30.22R
WAHOO          DRIZZLE   69  68  94 S9        30.22R
$$




USA.gov is the U.S. government's official web portal to all federal, state and local government web resources and services.